Time,TemperatureF,DewpointF,PressureIn,WindDirection,WindDirectionDegrees,WindSpeedMPH,WindSpeedGustMPH,Humidity,HourlyPrecipIn,Conditions,Clouds,dailyrainin,SolarRadiationWatts/m^2,SoftwareType,DateUTC
2013-07-01 00:11:00,58.3,53.0,30.14,NNE,15,1.0,-999.0,81,-99.99,,,0.00,0,weatherlink.com 1.10,2013-07-01 05:11:00,
2013-07-01 00:28:00,58.1,53.0,30.13,North,5,1.0,-999.0,83,-99.99,,,0.00,0,weatherlink.com 1.10,2013-07-01 05:28:00,
2013-07-01 00:41:00,57.9,53.0,30.13,North,5,2.0,-999.0,83,-99.99,,,0.00,0,weatherlink.com 1.10,2013-07-01 05:41:00,
2013-07-01 00:56:00,57.6,53.0,30.14,North,5,3.0,-999.0,84,-99.99,,,0.00,0,weatherlink.com 1.10,2013-07-01 05:56:00,
2013-07-01 01:11:00,57.3,53.0,30.14,North,10,2.0,-999.0,84,-99.99,,,0.00,0,weatherlink.com 1.10,2013-07-01 06:11:00,
2013-07-01 01:26:00,57.0,52.0,30.14,NNE,13,1.0,-999.0,84,-99.99,,,0.00,0,weatherlink.com 1.10,2013-07-01 06:26:00,
2013-07-01 01:41:00,56.9,52.0,30.14,NNE,28,2.0,-999.0,83,-99.99,,,0.00,0,weatherlink.com 1.10,2013-07-01 06:41:00,
2013-07-01 01:56:00,57.1,52.0,30.14,North,9,1.0,-999.0,83,-99.99,,,0.00,0,weatherlink.com 1.10,2013-07-01 06:56:00,
2013-07-01 02:11:00,57.3,52.0,30.14,North,11,0.0,-999.0,83,-99.99,,,0.00,0,weatherlink.com 1.10,2013-07-01 07:11:00,
2013-07-01 02:26:00,57.0,52.0,30.14,North,5,1.0,-999.0,82,-99.99,,,0.00,0,weatherlink.com 1.10,2013-07-01 07:26:00,
2013-07-01 02:41:00,56.6,51.0,30.14,NNW,335,1.0,-999.0,82,-99.99,,,0.00,0,weatherlink.com 1.10,2013-07-01 07:41:00,
2013-07-01 02:56:00,56.1,51.0,30.15,NNW,329,1.0,-999.0,83,-99.99,,,0.00,0,weatherlink.com 1.10,2013-07-01 07:56:00,
2013-07-01 03:12:00,55.7,51.0,30.15,North,355,1.0,-999.0,84,-99.99,,,0.00,0,weatherlink.com 1.10,2013-07-01 08:12:00,
2013-07-01 03:27:00,55.5,51.0,30.15,NNW,333,1.0,-999.0,85,-99.99,,,0.00,0,weatherlink.com 1.10,2013-07-01 08:27:00,
2013-07-01 03:42:00,55.2,51.0,30.16,NNW,332,1.0,-999.0,85,-99.99,,,0.00,0,weatherlink.com 1.10,2013-07-01 08:42:00,
2013-07-01 03:57:00,54.8,51.0,30.16,North,355,1.0,-999.0,86,-99.99,,,0.00,0,weatherlink.com 1.10,2013-07-01 08:57:00,
2013-07-01 04:12:00,54.6,51.0,30.16,NNW,342,4.0,-999.0,86,-99.99,,,0.00,0,weatherlink.com 1.10,2013-07-01 09:12:00,
2013-07-01 04:27:00,54.4,50.0,30.16,NW,318,5.0,-999.0,86,-99.99,,,0.00,0,weatherlink.com 1.10,2013-07-01 09:27:00,
2013-07-01 04:42:00,54.4,51.0,30.16,NNW,343,1.0,-999.0,87,-99.99,,,0.00,0,weatherlink.com 1.10,2013-07-01 09:42:00,
2013-07-01 04:57:00,54.4,51.0,30.17,NNW,338,2.0,-999.0,87,-99.99,,,0.00,0,weatherlink.com 1.10,2013-07-01 09:57:00,
2013-07-01 05:12:00,54.3,51.0,30.17,NNW,339,2.0,-999.0,87,-99.99,,,0.00,0,weatherlink.com 1.10,2013-07-01 10:12:00,
2013-07-01 05:27:00,54.0,50.0,30.17,NNW,344,2.0,-999.0,87,-99.99,,,0.00,0,weatherlink.com 1.10,2013-07-01 10:27:00,
2013-07-01 05:42:00,53.6,50.0,30.17,NNW,341,2.0,-999.0,87,-99.99,,,0.00,0,weatherlink.com 1.10,2013-07-01 10:42:00,
2013-07-01 05:57:00,53.3,50.0,30.18,NNW,347,4.0,-999.0,87,-99.99,,,0.00,0,weatherlink.com 1.10,2013-07-01 10:57:00,
2013-07-01 06:12:00,53.1,50.0,30.18,North,349,2.0,-999.0,88,-99.99,,,0.00,9,weatherlink.com 1.10,2013-07-01 11:12:00,
2013-07-01 06:27:00,52.8,49.0,30.18,North,355,2.0,-999.0,88,-99.99,,,0.00,21,weatherlink.com 1.10,2013-07-01 11:27:00,
2013-07-01 06:42:00,52.8,50.0,30.18,NNW,340,2.0,-999.0,89,-99.99,,,0.00,39,weatherlink.com 1.10,2013-07-01 11:42:00,
2013-07-01 06:57:00,53.1,50.0,30.18,North,355,2.0,-999.0,90,-99.99,,,0.00,84,weatherlink.com 1.10,2013-07-01 11:57:00,
2013-07-01 07:12:00,53.8,51.0,30.19,North,355,2.0,-999.0,90,-99.99,,,0.00,127,weatherlink.com 1.10,2013-07-01 12:12:00,
2013-07-01 07:27:00,54.9,52.0,30.19,NNW,343,4.0,-999.0,90,-99.99,,,0.00,163,weatherlink.com 1.10,2013-07-01 12:27:00,
2013-07-01 07:44:00,56.2,53.0,30.19,NNW,342,4.0,-999.0,90,-99.99,,,0.00,225,weatherlink.com 1.10,2013-07-01 12:44:00,
2013-07-01 07:57:00,57.4,54.0,30.20,North,11,2.0,-999.0,89,-99.99,,,0.00,287,weatherlink.com 1.10,2013-07-01 12:57:00,
2013-07-01 08:12:00,59.0,56.0,30.20,North,350,2.0,-999.0,88,-99.99,,,0.00,360,weatherlink.com 1.10,2013-07-01 13:12:00,
2013-07-01 08:27:00,60.7,57.0,30.20,North,355,2.0,-999.0,87,-99.99,,,0.00,401,weatherlink.com 1.10,2013-07-01 13:27:00,
2013-07-01 08:43:00,62.7,58.0,30.21,North,9,4.0,-999.0,84,-99.99,,,0.00,450,weatherlink.com 1.10,2013-07-01 13:43:00,
2013-07-01 08:58:00,64.8,58.0,30.21,NNE,20,4.0,-999.0,78,-99.99,,,0.00,494,weatherlink.com 1.10,2013-07-01 13:58:00,
2013-07-01 09:13:00,67.2,59.0,30.21,North,355,5.0,-999.0,74,-99.99,,,0.00,540,weatherlink.com 1.10,2013-07-01 14:13:00,
2013-07-01 09:28:00,69.4,58.0,30.21,ENE,59,2.0,-999.0,67,-99.99,,,0.00,585,weatherlink.com 1.10,2013-07-01 14:28:00,
2013-07-01 09:43:00,71.3,59.0,30.21,NNE,12,3.0,-999.0,66,-99.99,,,0.00,628,weatherlink.com 1.10,2013-07-01 14:43:00,
2013-07-01 09:58:00,73.0,57.0,30.21,NE,35,7.0,-999.0,58,-99.99,,,0.00,663,weatherlink.com 1.10,2013-07-01 14:58:00,
2013-07-01 10:13:00,74.2,57.0,30.21,NE,52,4.0,-999.0,56,-99.99,,,0.00,708,weatherlink.com 1.10,2013-07-01 15:13:00,
2013-07-01 10:28:00,75.0,58.0,30.21,North,355,7.0,-999.0,56,-99.99,,,0.00,744,weatherlink.com 1.10,2013-07-01 15:28:00,
2013-07-01 10:42:00,75.9,56.0,30.21,ENE,76,4.0,-999.0,51,-99.99,,,0.00,770,weatherlink.com 1.10,2013-07-01 15:42:00,
2013-07-01 10:57:00,76.7,59.0,30.21,NE,38,2.0,-999.0,54,-99.99,,,0.00,800,weatherlink.com 1.10,2013-07-01 15:57:00,
2013-07-01 11:12:00,77.0,57.0,30.21,East,82,10.0,-999.0,50,-99.99,,,0.00,824,weatherlink.com 1.10,2013-07-01 16:12:00,
2013-07-01 11:28:00,76.7,55.0,30.21,NNW,348,6.0,-999.0,47,-99.99,,,0.00,853,weatherlink.com 1.10,2013-07-01 16:28:00,
2013-07-01 11:43:00,76.9,54.0,30.21,ENE,57,3.0,-999.0,46,-99.99,,,0.00,884,weatherlink.com 1.10,2013-07-01 16:43:00,
2013-07-01 11:58:00,77.6,55.0,30.21,East,80,8.0,-999.0,46,-99.99,,,0.00,898,weatherlink.com 1.10,2013-07-01 16:58:00,
2013-07-01 12:13:00,77.9,54.0,30.20,NNE,31,5.0,-999.0,44,-99.99,,,0.00,919,weatherlink.com 1.10,2013-07-01 17:13:00,
2013-07-01 12:28:00,78.2,54.0,30.20,East,82,8.0,-999.0,44,-99.99,,,0.00,928,weatherlink.com 1.10,2013-07-01 17:28:00,
2013-07-01 12:43:00,78.1,55.0,30.20,NE,55,3.0,-999.0,45,-99.99,,,0.00,944,weatherlink.com 1.10,2013-07-01 17:43:00,
2013-07-01 12:58:00,78.3,55.0,30.20,NE,49,2.0,-999.0,45,-99.99,,,0.00,944,weatherlink.com 1.10,2013-07-01 17:58:00,
2013-07-01 13:13:00,79.0,55.0,30.20,East,101,9.0,-999.0,44,-99.99,,,0.00,960,weatherlink.com 1.10,2013-07-01 18:13:00,
2013-07-01 13:28:00,78.9,55.0,30.20,ENE,57,5.0,-999.0,44,-99.99,,,0.00,951,weatherlink.com 1.10,2013-07-01 18:28:00,
2013-07-01 13:43:00,79.0,55.0,30.19,NNE,24,2.0,-999.0,44,-99.99,,,0.00,956,weatherlink.com 1.10,2013-07-01 18:43:00,
2013-07-01 13:59:00,79.2,55.0,30.19,ENE,69,5.0,-999.0,44,-99.99,,,0.00,976,weatherlink.com 1.10,2013-07-01 18:59:00,
2013-07-01 14:13:00,79.6,54.0,30.19,NNE,17,3.0,-999.0,42,-99.99,,,0.00,946,weatherlink.com 1.10,2013-07-01 19:13:00,
2013-07-01 14:28:00,80.0,57.0,30.18,NNE,15,5.0,-999.0,46,-99.99,,,0.00,1021,weatherlink.com 1.10,2013-07-01 19:28:00,
2013-07-01 14:43:00,80.1,55.0,30.18,NNE,23,3.0,-999.0,42,-99.99,,,0.00,954,weatherlink.com 1.10,2013-07-01 19:43:00,
2013-07-01 14:58:00,80.1,55.0,30.18,NE,55,2.0,-999.0,42,-99.99,,,0.00,949,weatherlink.com 1.10,2013-07-01 19:58:00,
2013-07-01 15:13:00,80.2,55.0,30.17,NNE,23,6.0,-999.0,42,-99.99,,,0.00,912,weatherlink.com 1.10,2013-07-01 20:13:00,
2013-07-01 15:28:00,80.1,54.0,30.17,NNW,348,10.0,-999.0,40,-99.99,,,0.00,868,weatherlink.com 1.10,2013-07-01 20:28:00,
2013-07-01 15:43:00,80.2,54.0,30.17,ENE,67,13.0,-999.0,41,-99.99,,,0.00,754,weatherlink.com 1.10,2013-07-01 20:43:00,
2013-07-01 15:58:00,79.6,55.0,30.16,NE,47,3.0,-999.0,43,-99.99,,,0.00,875,weatherlink.com 1.10,2013-07-01 20:58:00,
2013-07-01 16:13:00,80.0,56.0,30.16,NE,45,8.0,-999.0,44,-99.99,,,0.00,775,weatherlink.com 1.10,2013-07-01 21:13:00,
2013-07-01 16:28:00,80.3,56.0,30.16,East,90,7.0,-999.0,43,-99.99,,,0.00,717,weatherlink.com 1.10,2013-07-01 21:28:00,
2013-07-01 16:43:00,81.1,57.0,30.16,NNE,17,6.0,-999.0,44,-99.99,,,0.00,671,weatherlink.com 1.10,2013-07-01 21:43:00,
2013-07-01 16:58:00,81.3,55.0,30.15,NE,53,4.0,-999.0,41,-99.99,,,0.00,640,weatherlink.com 1.10,2013-07-01 21:58:00,
2013-07-01 17:13:00,81.8,57.0,30.15,ENE,66,5.0,-999.0,43,-99.99,,,0.00,605,weatherlink.com 1.10,2013-07-01 22:13:00,
2013-07-01 17:28:00,81.5,56.0,30.15,NNE,29,6.0,-999.0,41,-99.99,,,0.00,550,weatherlink.com 1.10,2013-07-01 22:28:00,
2013-07-01 17:43:00,81.5,57.0,30.14,NE,56,3.0,-999.0,43,-99.99,,,0.00,501,weatherlink.com 1.10,2013-07-01 22:43:00,
2013-07-01 17:58:00,81.2,55.0,30.14,North,5,3.0,-999.0,41,-99.99,,,0.00,454,weatherlink.com 1.10,2013-07-01 22:58:00,
2013-07-01 18:13:00,80.7,56.0,30.14,East,93,7.0,-999.0,43,-99.99,,,0.00,404,weatherlink.com 1.10,2013-07-01 23:13:00,
2013-07-01 18:28:00,80.6,57.0,30.14,NE,34,4.0,-999.0,44,-99.99,,,0.00,334,weatherlink.com 1.10,2013-07-01 23:28:00,
2013-07-01 18:43:00,80.8,56.0,30.14,NE,42,1.0,-999.0,43,-99.99,,,0.00,250,weatherlink.com 1.10,2013-07-01 23:43:00,
2013-07-01 18:58:00,81.0,57.0,30.13,NNE,32,3.0,-999.0,44,-99.99,,,0.00,220,weatherlink.com 1.10,2013-07-01 23:58:00,
2013-07-01 19:13:00,80.9,58.0,30.13,North,5,2.0,-999.0,45,-99.99,,,0.00,174,weatherlink.com 1.10,2013-07-02 00:13:00,
2013-07-01 19:28:00,80.6,57.0,30.13,NE,42,3.0,-999.0,45,-99.99,,,0.00,141,weatherlink.com 1.10,2013-07-02 00:28:00,
2013-07-01 19:44:00,79.9,57.0,30.14,NE,34,3.0,-999.0,46,-99.99,,,0.00,134,weatherlink.com 1.10,2013-07-02 00:44:00,
2013-07-01 19:59:00,79.3,60.0,30.14,North,5,2.0,-999.0,51,-99.99,,,0.00,104,weatherlink.com 1.10,2013-07-02 00:59:00,
2013-07-01 20:14:00,78.8,61.0,30.13,North,355,1.0,-999.0,54,-99.99,,,0.00,70,weatherlink.com 1.10,2013-07-02 01:14:00,
2013-07-01 20:29:00,77.5,59.0,30.13,North,355,1.0,-999.0,54,-99.99,,,0.00,30,weatherlink.com 1.10,2013-07-02 01:29:00,
2013-07-01 20:44:00,76.4,60.0,30.13,North,355,1.0,-999.0,57,-99.99,,,0.00,14,weatherlink.com 1.10,2013-07-02 01:44:00,
2013-07-01 20:59:00,74.4,59.0,30.13,North,355,0.0,-999.0,58,-99.99,,,0.00,5,weatherlink.com 1.10,2013-07-02 01:59:00,
2013-07-01 21:15:00,72.0,59.0,30.13,NW,318,2.0,-999.0,63,-99.99,,,0.00,0,weatherlink.com 1.10,2013-07-02 02:15:00,
2013-07-01 21:29:00,69.8,58.0,30.13,NW,318,2.0,-999.0,66,-99.99,,,0.00,0,weatherlink.com 1.10,2013-07-02 02:29:00,
2013-07-01 21:44:00,68.0,57.0,30.13,NW,320,1.0,-999.0,69,-99.99,,,0.00,0,weatherlink.com 1.10,2013-07-02 02:44:00,
2013-07-01 21:59:00,66.9,57.0,30.14,NW,323,1.0,-999.0,70,-99.99,,,0.00,0,weatherlink.com 1.10,2013-07-02 02:59:00,
2013-07-01 22:14:00,66.1,57.0,30.14,NNW,331,1.0,-999.0,72,-99.99,,,0.00,0,weatherlink.com 1.10,2013-07-02 03:14:00,
2013-07-01 22:29:00,65.3,57.0,30.14,NNW,335,2.0,-999.0,75,-99.99,,,0.00,0,weatherlink.com 1.10,2013-07-02 03:29:00,
2013-07-01 22:44:00,64.5,56.0,30.14,NNW,334,1.0,-999.0,75,-99.99,,,0.00,0,weatherlink.com 1.10,2013-07-02 03:44:00,
2013-07-01 22:59:00,63.8,56.0,30.14,NNW,346,1.0,-999.0,76,-99.99,,,0.00,0,weatherlink.com 1.10,2013-07-02 03:59:00,
2013-07-01 23:14:00,63.2,56.0,30.14,North,360,2.0,-999.0,78,-99.99,,,0.00,0,weatherlink.com 1.10,2013-07-02 04:14:00,
2013-07-01 23:29:00,62.8,57.0,30.14,NNW,341,1.0,-999.0,80,-99.99,,,0.00,0,weatherlink.com 1.10,2013-07-02 04:29:00,
2013-07-01 23:44:00,62.4,57.0,30.14,NNW,343,2.0,-999.0,81,-99.99,,,0.00,0,weatherlink.com 1.10,2013-07-02 04:44:00,
2013-07-01 23:59:00,62.1,56.0,30.15,NNW,340,2.0,-999.0,81,-99.99,,,0.00,0,weatherlink.com 1.10,2013-07-02 04:59:00,